Miscellaneous Local Product
Issued by NWS Hastings, NE

Home | Current Version | Previous Version | Text Only | Print | Product List | Glossary On
Versions: 1 2 3 4 5 6 7 8 9 10 11 12 13 14 15 16 17 18 19 20 21 22 23 24 25 26 27 28 29 30 31 32 33 34 35 36 37 38 39 40 41 42 43 44 45 46 47 48 49 50
000
AXUS43 KGID 260302
MISGRI

GID CWA HOURLY WEATHER ROUNDUP
NATIONAL WEATHER SERVICE HASTINGS NE
1000 PM CDT FRI JUL 25 2014

NOTE: "FAIR" INDICATES FEW OR NO CLOUDS BELOW 12,000 FEET WITH NO
SIGNIFICANT WEATHER AND/OR OBSTRUCTIONS TO VISIBILITY.

...SOUTH CENTRAL NEBRASKA...

CITY           SKY/WX    TMP DP  RH WIND       PRES   REMARKS
GRAND ISLAND   MOCLDY    78  73  84 CALM      29.82R
HASTINGS       MOCLDY    79  70  74 CALM      29.83R
KEARNEY        CLOUDY    75  68  78 N3        29.84R
ORD            MOCLDY    77  71  82 CALM      29.83R
YORK           CLEAR     77  77 100 N5        29.81R
AURORA         PTCLDY    78  76  94 NE3       29.82R
LEXINGTON      CLOUDY    78  74  87 CALM      29.85S
HOLDREGE       CLOUDY    76  70  83 CALM      29.85R
HEBRON         CLEAR     78  72  82 CALM      29.79R

...NEBRASKA PANHANDLE...

CITY           SKY/WX    TMP DP  RH WIND       PRES   REMARKS
CHADRON        PTCLDY    81  55  40 S21G36    29.83S
ALLIANCE       MOCLDY    70  58  65 S13       29.94R
SCOTTSBLUFF    MOCLDY    73  62  68 SE8       29.94F
SIDNEY         CLOUDY    73  57  57 W7        30.01F

...WESTERN AND NORTH CENTRAL NEBRASKA...

CITY           SKY/WX    TMP DP  RH WIND       PRES   REMARKS
VALENTINE      CLOUDY    80  59  48 NE8       29.87F
AINSWORTH      CLOUDY    79  67  67 SW5       29.90R
ONEILL         MOCLDY    80  70  72 E7        29.84R
BROKEN BOW     CLOUDY    75  71  87 N5        29.88R
IMPERIAL       CLOUDY    80  67  64 NW5       29.94R
NORTH PLATTE   CLOUDY    78  70  76 CALM      29.89R
MCCOOK         MOCLDY    79  68  69 E3        29.87R

...EASTERN NEBRASKA...

CITY           SKY/WX    TMP DP  RH WIND       PRES   REMARKS
NORFOLK        PTCLDY    81  73  76 NE5       29.81R
SO SIOUX CITY  MOCLDY    81  73  76 E7        29.80R
COLUMBUS       CLEAR     79  73  83 NW5       29.80R
ALBION         MOCLDY    78  74  86 CALM      29.83R
OMAHA EPPLEY   MOCLDY    83  75  77 NE5       29.77R HX  90
OFFUTT AFB     PTCLDY    80  80 100 NE3       29.75R HX  90
MILLARD        CLEAR     82  75  78 CALM      29.76R
LINCOLN        CLEAR     82  75  79 N6        29.78R
NEBRASKA CITY  CLEAR     84  76  77 CALM      29.76R HX  92
BEATRICE       CLEAR     81  75  83 CALM      29.78R
FALLS CITY     CLEAR     87  72  60 W7        29.75R HX  93

...NORTHERN KANSAS...

CITY           SKY/WX    TMP DP  RH WIND       PRES   REMARKS
GOODLAND       PTCLDY    80  64  58 E7        29.96R
HILL CITY      PTCLDY    84  69  60 N7        29.84R
NORTON         CLEAR     79  66  65 CALM      29.84R
PHILLIPSBURG   CLEAR     84  66  54 N7        29.81R
SMITH CENTER   CLEAR     82  70  65 NE10      29.80R
HAYS           CLEAR     86  68  54 NE10      29.82R
RUSSELL        CLEAR     83  69  62 SW5       29.77R
CONCORDIA      CLEAR     86  75  69 CALM      29.78R HX  95
SALINA         CLEAR     89  62  40 S7        29.76R
TOPEKA         CLEAR     90  73  57 S12G20    29.77R HX  98



USA.gov is the U.S. government's official web portal to all federal, state and local government web resources and services.